CZ-3B DEB, 40852

Orbit data source: Space-Track

CZ-3B DEB, 40852 is space debris in HEO originally from a launch on Mon, 19 Dec 2011 UTC launched from the Xichang Space Center, China (XSC). Debris objects in space refer to the collection of defunct objects orbiting the Earth. Examples of debris include non-operational satellites, rocket bodies, and fragments generated from explosions, collisions, or faulty payload assembly.

Loading next visibility...
Identifier
40852, 2011-077AH
Orbit
HEO
Last TLE update
6 days ago
Origin
Manufacturer
CALT
Mission
Spacecraft
Bus & Motor
Unknown
Mass
Unknown
Launch date (UTC)
2011-12-19 (13 years ago)
Launch vehicle
Unknown
Launch site
Xichang Space Center, China (XSC)
Object type
Payload
Rocket body
Debris
Shape & HBR
Unknown
Radar Cross Section
Medium (>0.1 m² and <1 m²)

Expand to show TLE details & history

TLE from 6 days ago
0 CZ-3B DEB
1 40852U 11077AH  25133.31409170 -.00000075  00000-0  00000-0 0  9997
2 40852  25.9851 140.4160 7377934 135.4692 315.3920  1.90682447 78725
Epoch: 2025-05-13T07:32Z
TLE epoch observation values (Epoch: 2025-05-13T07:32:17.522Z)
Latitude
-0.00005°
Longitude
156.14371°
Altitude
19,913.139 km
Speed
3.976 km/s
True Right ascension
09h 22m 07s
True Declination
0° 00' 00"
Sunlit
Object was in daylight at epoch
Visualization orbit readout
Latitude
-14.60879°
Longitude
122.09751°
Altitude
40,446.956 km
Speed
1.586 km/s
Apparent Right ascension
07h 09m 26s
Apparent Declination
-17° 33' 30"
Sunlit
Object is in daylight
Visualization observer readout
Local Sidereal Time
19:41:54
Azimuth
19.786° NNE
Elevation
-66.563°
Doppler factor
1
Orbital elements
Apogee altitude
41,365.825 km
Perigee altitude
825.701 km
Semi-major axis
27,473.9 km
Eccentricity
0.73779
Inclination
25.9851°
RAAN
140.416°
Arg. of periapsis
135.4692°
True anomaly
Unknown
Mean anomaly
315.392°
Eccentric anomaly
Unknown
Mean motion
0.47661 °/min
Orbital period
755.34 mins
BSTAR
0
Loading maneuver chart data...
Loading SW <> Apogee altitude chart data...
Loading historical data...
Loading historical data...
Loading historical data...
Loading historical data...
Loading historical data...
Loading historical data...
Loading historical data...

CZ-3B DEB Visibility forecast

Observer location: undefined°, undefined°

Span
Click to sort rows by Start time (UTC) header in descending order
Start Az.
Max El. time (UTC)
Max El. Az.
Max El.
End time (UTC)
End Az.
634 mins2025-05-19 17:57:55.361Z163.862° S2025-05-20 04:20:55.361Z183.02° SSW37.672°2025-05-20 04:31:55.361Z110.677° ESE
|